Location: Riverside Cemetery
(38.3047°N, 99.7773°W)
Time: 19:22:49
(UTC+00:00)

NOSS 2-2 (C) - Pass Details

Date: 19 September 2020
Orbit: 468 x 1740 km, 63.3° (Epoch: 19 October)

Event Time Altitude Azimuth Distance (km) Brightness Sun altitude
Rises 01:21:57 0° 204° (SSW) 2,573 7.0 -8.7°
Reaches altitude 10° 01:24:07 10° 201° (SSW) 1,642 5.9 -9.2°
Maximum altitude 01:27:36 62° 121° (ESE) 531 3.0 -9.8°
Drops below altitude 10° 01:31:10 10° 39° (NE) 1,689 5.5 -10.5°
Sets 01:33:26 0° 36° (NE) 2,657 6.6 -11.0°
